Regional Weather Roundup
Issued by NWS

Home | Current Version | Previous Version | Graphics & Text | Print | Product List | Glossary On
Versions: 1 2 3 4 5 6 7 8 9 10 11 12 13 14 15 16 17 18 19 20 21 22 23 24 25 26 27 28 29 30 31 32 33 34 35 36 37 38 39 40 41 42 43 44 45 46 47 48 49 50
000
ASUS43 KFSD 291102
RWRSD

WEATHER ROUNDUP FOR SOUTH DAKOTA
NATIONAL WEATHER SERVICE SIOUX FALLS SD
600 AM CDT FRI MAY 29 2015

NOTE: "FAIR" INDICATES FEW OR NO CLOUDS BELOW 12,000 FEET WITH NO
SIGNIFICANT WEATHER AND/OR OBSTRUCTIONS TO VISIBILITY.


SDZ001>005-009-010-012>017-291200-
NORTHWEST AND NORTH CENTRAL SOUTH DAKOTA

CITY           SKY/WX    TMP DP  RH WIND       PRES   REMARKS
BUFFALO          N/A     47  45  93 N18       30.08R
FAITH            N/A     50  47  89 N24G30    30.06R
MOBRIDGE       CLOUDY    56  55  97 N17G32    29.96R
$$

SDZ012>016-024>037-041>051-057-063-072>074-291200-
SOUTHWEST AND SOUTH CENTRAL SOUTH DAKOTA

CITY           SKY/WX    TMP DP  RH WIND       PRES   REMARKS
RAPID CTY ARPT CLOUDY    55  53  93 N17       30.07R
PIERRE         RAIN      59  58  96 N18       29.91S FOG
CUSTER         CLOUDY    50  44  80 N8G17     30.10S
ELLSWORTH AFB  CLOUDY    54  54 100 N20       30.07
PHILIP         LGT RAIN  59  57  93 N12       29.98R
PINE RIDGE     CLOUDY    55  51  86 NW7       30.04S
WINNER         LGT RAIN  60  56  86 NW13G22   29.90R
$$

SDZ004>011-016>023-039-040-291200-
NORTHEAST SOUTH DAKOTA

CITY           SKY/WX    TMP DP  RH WIND       PRES   REMARKS
ABERDEEN       LGT RAIN  62  60  93 N8        29.90R
WATERTOWN      CLOUDY    60  58  92 N5        29.85S
BROOKINGS      CLOUDY    63  57  82 SE5       29.85S
SISSETON         N/A     59  59 100 N8        29.87R
$$

SDZ017-020-022-023-036>040-048>070-291200-
SOUTHEAST SOUTH DAKOTA

CITY           SKY/WX    TMP DP  RH WIND       PRES   REMARKS
SIOUX FALLS    CLOUDY    64  63  96 S5        29.83S
HURON            N/A    N/A N/A N/A MISG      29.82R
CHAMBERLAIN    CLOUDY    59  57  95 NW16      29.87R
MITCHELL       LGT RAIN  63  60  90 S7        29.85R
YANKTON        CLOUDY    64  59  82 W5        29.82F
$$

ABBREVIATIONS USED IN REMARKS
   TC - TEMPERATURE IN CELSIUS
  WCI - WIND CHILL INDEX
   HX - HEAT INDEX
  VSB - VISIBILITY



USA.gov is the U.S. government's official web portal to all federal, state and local government web resources and services.